Location: Caltech
(34.1382°N, 118.1253°W)
Time: 03:30:00
(UTC-07:00)

Iridium 59 - Visible Passes

Search period start: 28 July 2016 00:00
Search period end: 07 August 2016 00:00
Orbit: 776 x 779 km, 86.4° (Epoch: 27 July)

Date Brightness Start Highest point End Pass type
(mag) Time Alt. Az. Time Alt. Az. Time Alt. Az.
28 Jul 7.1 21:09:06 10° NNW 21:13:27 27° W 21:17:47 10° SW visible
29 Jul 5.9 20:35:02 10° NNW 20:40:06 53° W 20:45:09 10° SSW visible
31 Jul 7.8 21:09:52 10° NW 21:13:23 19° W 21:16:53 10° SW visible
01 Aug 6.8 20:35:24 10° NNW 20:40:06 35° W 20:44:48 10° SSW visible
03 Aug 8.1 21:11:17 10° NW 21:13:16 12° W 21:15:16 10° WSW visible
04 Aug 7.6 20:35:57 10° NNW 20:40:04 24° W 20:44:10 10° SW visible
